Regional Weather Roundup
Issued by NWS Goodland, KS

Home | Current Version | Previous Version | Graphics & Text | Print | Product List | Glossary Off
Versions: 1 2 3 4 5 6 7 8 9 10 11 12 13 14 15 16 17 18 19 20 21 22 23 24 25 26 27 28 29 30 31 32 33 34 35 36 37 38 39 40 41 42 43 44 45 46 47 48 49 50

000
ASUS43 KGLD 212208
RWRGLD

GOODLAND FORECAST AREA HOURLY WEATHER ROUNDUP
NATIONAL WEATHER SERVICE GOODLAND KS
400 PM MDT THU AUG 21 2014

...OFFICIAL OBSERVATIONS...

CITY           SKY/WX    TMP DP  RH WIND       PRES   REMARKS
GOODLAND KS    SUNNY     95  48  20 N13G18    29.97S
HILL CITY KS   SUNNY     98  62  30 VRB5      29.85S
IMPERIAL NEB   SUNNY     90  52  27 NW9       29.95S
MCCOOK NEB     MOSUNNY   93  53  25 NW3       29.89S
AKRON CO       SUNNY     85  44  23 NW9G20    30.05F
BURLINGTON CO  SUNNY     90  46  21 VRB5      30.01F
LIMON CO       PTSUNNY   81  47  30 NE9       30.09S
$$

...UNOFFICIAL OBSERVATIONS...

CITY           SKY/WX    TMP DP  RH WIND       PRES   REMARKS
COLBY KS       SUNNY     91  61  35 NE5       29.94S
LENORA KS        N/A     94  32  11 CALM        N/A
NORTON KS      SUNNY     95  52  23 NE5       29.85S
SHARON SPRINGS   N/A     94  57  28 NE5G13      N/A
WAKEENEY KS      N/A     99  53  21 MISG        N/A
KIT CARSON CO    N/A     92  51  24 MISG        N/A
YUMA CO          N/A     89  45  21 NW5G13      N/A
$$



USA.gov is the U.S. government's official web portal to all federal, state and local government web resources and services.